Location: Burtsch�tz
(51.0528°N, 12.1764°E)
Time: 01:09:19
(UTC+00:00)

SeaSat 1 - Pass Details

Date: 29 October 2020
Orbit: 744 x 747 km, 108.0° (Epoch: 23 November)

Event Time Altitude Azimuth Distance (km) Brightness Sun altitude
Exits shadow 18:00:38 47° 100° (E) 989 2.6 -21.0°
Maximum altitude 18:01:43 58° 53° (NE) 872 2.5 -21.1°
Drops below altitude 10° 18:06:34 10° 336° (NNW) 2,276 5.3 -21.9°
Sets 18:08:52 0° 332° (NNW) 3,205 6.2 -22.3°
